Terug naar catalogus

ARIANE 1 DEB

ActiefSSO
NORAD 17117·DEBRIS·🇫🇷 France

Gelanceerd Feb 22, 1986 vanaf Guiana Space Centre

Loading…

Volgende Passages (komende 24 uur)

TLE

VersSource: Space-Track

Epoch: Sep 14, 2026, 12:43 UTC

1 17117U 86019M   26257.53032671  .00003797  00000-0  71643-3 0  9990
2 17117  98.1893 279.0625 0062664  28.5818 132.4559 14.63811471 72806

Volg ARIANE 1 DEB in realtime met AllMySat

Download on the App Store